Weather in Kollam

India     8°53′00″N   76°35′26″E
temp.,
°C
wind,
m/s
gust,
m/s
humid.,
%
clouds,
%
prec.,
mm/h
press.,
hPa
HPBL,
m
25 february, thu
thu2523:30+27ese22747 0.4 1012375
02:30+26e338283 0.0 1010144
05:30+25ene338266 0.0 1010149
08:30+26ene338241 0.1 1013191
11:30+28wnw337322 0.1 1013477
14:30+28wnw78741 0.0 1009534
17:30+28wnw677725 0.1 1009671
20:30+28nw568144 4.2 1011517
26 february, fri
fri2623:30+26nne348423 5.6 1011380
02:30+25ne338814 0.0 1009188
05:30+25ne44889 0.1 1009189
08:30+26ne44853 0.0 1012213
11:30+29wnw44722 0.0 1012510
14:30+28wnw78781 0.0 1008465
17:30+29wnw78770 0.0 1008563
20:30+28nw45802 2.1 1010402
27 february, sat
sat2723:30+27n22811 3.1 1010303
02:30+26ne33904 0.1 1008193
05:30+25ne34905 0.2 1008230
08:30+26nne338510 0.0 1010257
11:30+28wnw44755 0.0 1010487
14:30+28wnw78770 0.0 1007553
17:30+29wnw67771 0.0 1006622
20:30+28nw45785 0.1 1009622
28 february, sun
sun2823:30+27nne33803 0.1 1010418
02:30+26nne23833 0.0 1007228
05:30+25ne33861 0.0 1007211
08:30+26ene23801 0.0 1011239
11:30+28wsw33701 0.0 1010422
14:30+28wsw55730 0.0 1007435
17:30+29sw45700 0.0 1007675
20:30+28sse11681 0.0 1009624
1 march, mon
mon123:30+27ene21750 0.0 1010314
02:30+26e338356 0.0 1009149
05:30+25e338372 0.0 1009153
08:30+25e236682 0.0 1012168
11:30+27wsw226362 0.0 1013369
14:30+28wsw66733 0.0 1009522
17:30+28sw566847 0.0 1008812
20:30+28ssw22685 0.0 1011726